SCP
-0 0 0 0 0 0 0 0 0 0 0 0 0 0 0 0 0 0 -0 0 -0 -0 0 0 0 -0 -0 -0 -0 -0 -0 -0 -0 -0 -0 -0 -0 -0 -0 -0 -0 -0 -0 -0 -0 -0 -0 -0 -0
0 0 0 0 0 0 -0 0 0 0 0 0 0 0 0 0 0 0 0 -0 -0 0 0 0 -0 -0 -0 -0 -0 -0 -0 -0 -0 -0 -0 -0 -0 -0 -0 -0 -0 -0 -0 -0 -0 -0 -0 -0 -0
0 0 0 0 0 0 0 0 0 0 0 0 0 0 0 0 0 0 0 0 0 0 0 0 -0 -0 -0 -0 -0 0 -0 -0 -0 -0 -0 -0 -0 -0 -0 -0 -0 -0 -0 -0 -0 -0 -0 -0 -0
0 0 0 0 0 0 0 0 0 0 0 0 0 0 0 0 0 0 0 0 0 0 0 0 0 -0 -0 -0 0 0 -0 -0 -0 -0 -0 -0 -0 -0 -0 -0 -0 -0 -0 -0 -0 -0 0 0 0
0 0 0 0 0 0 0 -0 0 0 0 0 0 0 0 0 0 0 0 0 0 0 0 0 0 0 -0 -0 0 0 -0 -0 -0 -0 -0 -0 -0 -0 -0 -0 -0 -0 -0 -0 -0 -0 -0 0 0
0 0 0 0 0 0 0 0 0 0 0 0 0 0 0 0 0 0 0 0 0 0 0 0 0 0 -0 -0 0 0 -0 -0 -0 -0 -0 -0 -0 -0 -0 -0 -0 -0 -0 -0 -0 -0 -0 0 0
0 0 0 0 0 0 0 0 0 0 0 0 0 0 0 0 0 0 0 0 0 0 0 0 0 0 0 -0 -0 -0 -0 -0 -0 -0 -0 -0 -0 -0 -0 -0 -0 -0 -0 -0 -0 -0 -0 -0 -0
0 0 0 -0 0 0 0 0 0 0 0 0 0 0 0 0 0 0 0 0 0 0 0 0 0 0 0 0 -0 -0 -0 -0 -0 -0 0 0 -0 -0 -0 -0 -0 -0 -0 -0 -0 -0 -0 -0 -0
0 0 0 -0 0 0 0 0 0 0 0 0 0 0 0 0 0 0 0 0 0 0 0 0 0 0 0 0 0 -0 -0 -0 -0 -0 0 0 0 0 0 0 0 0 0 -0 -0 -0 -0 -0 -0
0 0 0 0 0 0 0 -0 0 0 0 0 0 0 0 0 0 0 0 0 0 0 0 0 0 0 0 0 0 -0 -0 0 0 0 0 -0 0 0 0 0 0 0 0 0 0 0 0 0 0
0 0 0 0 0 0 0 -0 0 0 0 0 0 0 0 0 0 0 0 0 0 0 0 0 0 0 0 0 0 0 -0 0 0 0 0 0 0 0 0 0 0 0 0 0 0 0 0 0 0
0 0 0 0 0 0 0 0 0 0 0 0 0 0 0 0 0 0 0 0 0 0 0 0 0 0 0 0 0 0 -0 -0 0 0 0 0 0 0 0 0 0 0 0 0 0 0 0 0 0
0 0 0 0 0 0 0 0 0 0 0 0 0 0 0 0 0 0 0 0 0 0 0 0 0 0 0 0 0 0 -0 -0 -0 -0 -0 0 0 0 0 0 0 0 0 0 0 0 0 0 0
0 0 0 0 0 0 0 0 0 0 0 0 0 0 0 0 0 0 0 0 0 0 0 0 0 0 0 0 0 0 -0 -0 -0 -0 -0 -0 0 0 0 0 0 0 0 0 0 0 0 0 0
0 0 0 0 0 0 0 0 0 0 0 0 0 0 0 0 0 0 0 0 0 0 0 0 0 0 0 0 0 0 0 -0 -0 -0 -0 0 0 0 0 0 0 0 0 0 0 0 0 0 0
0 0 0 0 0 0 0 0 0 0 0 0 0 0 0 0 0 0 0 0 0 0 0 0 0 0 0 0 0 0 0 0 0 0 0 0 0 0 0 0 0 0 0 0 0 0 0 0 0
0 0 0 0 0 0 0 0 0 0 0 0 0 0 0 0 0 0 0 0 0 0 0 0 0 0 0 0 0 0 0 0 0 0 0 0 0 0 0 0 0 0 0 0 0 0 0 0 0
0 0 0 0 0 0 0 0 0 0 0 0 0 0 0 0 0 0 0 0 0 0 0 0 0 0 0 0 0 0 0 0 0 0 0 0 0 0 0 0 0 0 0 0 0 0 0 0 0
0 0 0 0 0 0 0 0 0 0 0 0 0 0 0 0 0 0 0 0 0 0 0 0 0 0 0 0 0 0 0 0 0 0 0 0 0 0 0 0 0 0 0 0 0 0 0 0 0
0 0 0 0 0 0 0 0 0 0 0 0 0 0 0 0 0 0 0 0 0 0 0 0 0 0 0 0 0 0 0 0 0 0 0 0 0 0 0 0 0 0 0 0 0 0 0 0 0
0 0 0 0 0 0 0 0 0 0 0 0 0 0 0 0 0 0 0 0 0 0 0 0 0 0 0 0 0 0 0 0 0 0 0 0 0 0 0 0 0 0 0 0 0 0 0 0 0
0 0 0 0 0 0 0 -0 0 0 0 0 0 0 0 0 0 0 0 0 0 0 0 0 0 0 0 0 0 0 0 0 0 0 0 0 0 0 0 0 0 0 0 0 0 0 0 0 0
0 0 0 0 0 0 0 0 -0 0 0 0 0 0 0 0 0 0 0 0 0 0 0 0 0 0 0 0 0 0 0 0 0 0 0 0 0 0 0 0 0 0 0 0 0 0 0 0 0
0 0 0 0 0 0 0 0 -0 0 0 0 0 0 0 0 0 0 0 0 0 0 0 0 0 0 0 0 0 0 0 0 0 0 0 0 0 0 0 0 0 0 0 0 0 0 0 0 0
0 0 0 0 0 0 0 0 0 0 0 0 0 0 0 0 0 0 0 0 0 0 0 0 0 0 0 0 0 0 0 0 0 0 0 0 0 0 0 0 0 0 0 0 0 0 0 0 0
0 0 0 0 0 0 0 -0 0 0 0 0 0 0 0 0 0 0 0 0 0 0 0 0 0 0 0 0 0 0 0 0 0 0 0 0 0 0 0 0 0 0 0 0 0 0 0 0 0
0 0 0 0 0 0 0 0 0 0 0 0 0 0 0 0 0 0 0 0 0 0 0 0 0 0 0 0 0 0 0 0 0 0 0 0 0 0 0 0 0 0 0 0 0 0 0 0 0
0 0 0 0 0 0 0 0 -0 0 0 0 0 0 0 0 0 0 0 0 0 0 0 0 0 0 0 0 0 0 0 0 0 0 0 0 0 0 0 0 0 0 0 0 0 0 0 0 0
0 0 0 0 0 0 0 0 0 0 0 0 0 0 0 0 0 0 0 0 0 0 0 0 0 0 0 0 0 0 0 0 0 0 0 0 0 0 0 0 0 0 0 0 0 0 0 0 0
0 0 0 0 0 0 0 0 0 0 0 0 0 0 0 0 0 0 0 0 0 0 0 0 0 0 0 0 0 0 0 0 0 0 0 0 0 0 0 0 0 0 0 0 0 0 0 0 0
Wind_Speed_500mb
17 23 19 13 6 7 8 14 5 7 7 14 21 16 22 15 7 7 45 30 35 36 41 39 29 33 40 25 15 8 27 35 36 33 31 34 31 34 33 33 35 35 36 36 37 37 38 41 39
17 18 8 5 6 3 11 13 4 6 19 34 32 25 13 6 10 32 35 42 31 42 46 39 33 42 34 22 13 12 23 34 34 33 33 35 31 34 32 33 34 35 35 36 36 37 37 37 41
19 11 6 5 7 10 9 7 10 16 25 17 15 20 10 8 22 51 44 45 37 45 47 39 34 44 32 24 17 10 16 35 35 33 32 33 32 32 32 33 34 34 35 35 35 35 34 35 36
11 1 10 2 15 14 14 8 14 6 14 15 33 16 15 8 38 31 48 43 45 48 46 39 45 37 31 21 13 10 13 31 34 32 33 31 33 31 32 33 33 34 34 34 34 34 34 37 36
6 5 3 5 15 12 3 30 17 8 11 16 14 13 15 21 19 36 49 49 47 48 48 42 42 36 28 23 15 10 11 35 34 33 33 31 32 31 32 32 32 33 33 34 34 35 36 37 38
7 1 0 7 16 11 8 15 16 19 20 20 17 20 13 21 25 46 46 49 43 46 52 47 42 36 31 26 18 12 15 34 35 32 32 30 31 31 31 30 30 31 31 33 33 33 34 34 32
8 6 7 8 12 17 9 11 8 16 21 14 24 10 20 38 31 52 46 49 42 38 53 53 43 35 29 24 18 14 29 34 33 35 33 30 31 30 28 28 28 29 29 29 29 30 31 31 29
6 8 6 9 13 17 6 10 12 25 6 23 19 16 16 51 50 53 46 44 37 33 53 58 46 39 32 27 18 16 13 34 34 34 31 29 30 29 27 26 25 25 26 25 26 26 26 27 26
11 3 6 14 12 10 16 8 4 10 31 12 11 15 12 54 56 57 55 54 42 40 51 59 56 44 37 30 24 19 17 23 32 33 32 29 27 26 25 24 23 23 22 22 21 21 20 21 22
11 8 16 7 14 9 11 14 21 11 24 9 12 14 25 53 62 67 65 63 59 51 49 60 60 55 42 36 31 26 24 24 25 34 34 29 27 24 24 22 21 20 19 18 17 15 14 15 16
15 13 9 16 32 16 6 33 22 19 6 24 37 43 50 56 62 64 62 61 58 58 51 54 64 60 50 42 40 34 30 28 31 36 33 28 26 24 24 22 19 18 15 15 13 12 10 10 10
8 30 34 32 31 5 4 9 11 21 9 19 39 47 55 60 64 63 61 61 57 60 55 51 60 64 60 45 43 38 37 33 36 38 32 28 27 26 24 22 20 17 15 13 11 9 7 5 4
13 17 38 44 16 11 13 20 13 22 23 12 40 54 55 57 59 55 54 52 52 59 61 53 52 64 64 51 47 40 39 34 39 39 34 31 30 28 26 23 22 20 18 15 12 10 8 6 5
13 41 43 44 20 11 8 11 8 23 31 26 48 55 54 54 57 55 56 57 56 55 62 57 53 54 54 55 52 47 39 34 37 40 37 34 34 31 27 24 22 22 20 19 17 15 14 13 13
38 8 11 17 18 8 14 12 17 31 43 44 47 49 51 52 54 58 58 62 56 55 54 61 55 51 53 57 56 48 42 36 36 38 40 39 37 33 29 28 26 26 25 24 22 21 21 21 20
11 4 5 10 18 10 20 18 15 34 53 53 50 49 49 51 53 54 58 61 57 55 57 58 61 56 54 56 59 57 50 39 35 39 41 41 39 36 33 32 30 30 29 28 27 27 27 27 27
5 6 13 11 16 11 13 12 13 39 60 53 52 52 53 49 50 52 60 64 63 58 57 58 60 61 56 55 54 57 54 47 40 41 43 41 41 40 37 35 34 33 32 32 32 32 32 33 33
9 10 10 13 14 16 13 16 13 22 47 51 52 55 57 55 58 55 63 64 64 58 57 56 58 56 57 56 55 56 57 54 49 45 43 43 43 42 41 39 38 37 37 36 36 36 36 37 37
10 11 23 10 7 13 18 13 22 33 31 36 46 61 66 61 52 53 61 66 65 62 59 60 61 61 62 63 65 66 64 57 52 49 46 45 44 44 43 42 42 41 39 37 37 39 40 39 38
22 13 12 4 4 9 7 20 21 15 27 56 61 56 72 65 57 60 62 70 70 67 62 60 60 62 63 61 62 63 57 53 47 48 50 46 44 44 43 43 43 43 41 40 40 41 41 41 39
30 28 8 8 5 5 3 13 14 17 44 54 66 67 67 75 69 65 67 74 72 75 67 61 60 61 63 59 58 61 59 56 56 56 52 47 46 45 43 42 44 44 44 42 41 42 43 42 40
32 15 12 11 8 8 11 11 11 14 26 21 56 69 69 69 76 67 69 75 77 73 65 64 59 61 62 61 64 63 62 58 54 48 43 43 46 42 42 43 43 45 44 44 42 43 44 45 45
15 16 15 9 6 2 5 1 14 11 15 21 35 65 75 69 78 79 74 66 66 70 72 66 62 60 61 64 64 62 60 56 51 44 44 43 41 41 41 43 43 44 45 43 44 45 46 47 47
11 11 5 4 5 9 14 13 10 11 15 9 13 55 65 72 61 81 73 68 67 67 70 70 68 66 65 64 64 62 57 56 55 50 47 44 40 40 42 43 42 43 44 45 44 45 48 48 50
11 17 2 2 4 15 4 9 25 14 12 11 15 33 34 35 36 55 80 80 75 69 66 68 71 71 67 67 65 63 59 58 57 51 49 45 41 39 36 39 40 40 40 43 46 48 49 51 53
17 23 10 15 10 9 4 13 11 16 14 17 20 26 25 26 29 36 37 64 72 67 62 63 68 71 70 68 67 64 59 61 59 54 52 49 46 40 37 39 41 42 42 44 47 51 52 51 54
13 19 12 9 6 7 9 10 14 9 10 12 21 24 23 25 30 36 42 43 57 65 61 57 59 63 63 64 64 63 59 61 60 57 56 52 49 45 44 44 45 45 46 47 49 54 55 54 55
16 17 15 3 9 7 8 7 11 11 15 8 11 23 25 22 24 27 33 40 51 54 55 55 53 53 55 58 58 58 56 55 56 57 59 56 52 50 50 50 49 49 49 50 53 57 57 57 59
4 16 11 9 9 11 5 10 11 12 21 22 17 29 30 25 22 22 26 31 37 46 52 53 54 53 53 54 53 53 52 52 51 52 51 51 51 51 51 51 51 51 51 52 55 58 59 61 62
4 10 38 12 19 4 6 10 6 14 18 27 28 34 29 25 24 23 23 24 27 31 37 43 44 44 42 42 41 40 39 42 44 43 42 44 46 46 48 49 52 53 53 53 56 59 60 62 63
Wind_Direction_500mb
274 293 316 338 24 52 261 255 211 160 69 96 75 75 111 68 50 144 138 172 173 165 170 169 158 145 155 153 128 105 111 112 111 113 110 106 104 104 96 95 94 91 87 86 84 83 86 87 80
306 322 309 298 115 333 283 261 325 184 133 113 90 113 50 84 117 138 143 166 173 163 161 159 148 154 155 165 167 121 112 116 114 116 111 107 108 104 100 100 96 92 89 88 88 87 90 91 90
314 327 295 157 173 208 245 355 143 118 133 128 111 89 84 107 137 149 155 172 172 161 161 159 162 157 162 169 160 124 116 122 129 122 124 112 111 109 106 102 100 96 93 91 91 90 90 91 92
328 230 254 146 258 258 261 114 134 99 81 85 119 72 88 156 150 162 170 162 166 161 162 157 160 170 171 183 157 158 132 137 128 126 125 120 116 112 112 107 103 99 95 91 88 88 90 92 96
318 254 263 255 252 259 257 161 157 126 135 122 107 142 109 149 182 165 166 159 172 169 167 156 163 165 175 184 192 176 161 139 136 130 127 128 123 120 114 110 105 100 95 91 87 84 86 92 105
301 267 290 242 266 278 220 157 162 136 146 137 102 114 143 179 180 167 160 162 177 174 173 161 162 170 181 189 207 194 186 147 136 135 133 129 129 123 118 114 107 102 97 93 90 87 86 89 99
184 92 228 277 283 302 230 166 176 155 139 149 152 97 148 177 178 160 167 168 181 180 179 170 176 179 183 188 196 184 159 156 152 145 145 139 133 127 122 117 113 109 104 99 96 93 90 87 84
243 122 270 262 279 268 224 162 231 144 126 145 151 168 179 184 170 166 166 165 182 180 181 175 178 181 184 187 196 183 182 161 158 158 152 141 138 134 129 125 121 116 110 106 99 94 92 90 88
244 66 222 242 246 282 152 160 131 150 143 143 154 167 209 176 169 169 168 173 182 176 181 184 183 183 185 184 196 197 181 184 169 158 150 147 147 140 138 132 129 125 121 114 106 99 92 90 86
169 170 226 221 300 178 286 227 165 150 135 113 144 158 163 172 173 176 180 182 183 188 191 194 194 197 190 193 201 208 200 190 173 164 161 162 155 150 148 143 144 140 136 129 121 112 104 93 85
192 215 253 278 308 347 44 239 187 144 216 193 181 169 170 177 182 188 189 192 190 190 197 199 200 203 203 194 198 207 206 192 183 175 177 175 167 164 165 164 162 159 158 151 146 138 125 105 91
243 234 243 266 263 264 255 182 191 190 196 217 223 201 179 186 190 194 194 193 191 191 199 203 203 206 209 197 197 210 210 191 187 189 190 185 190 184 183 183 182 178 183 178 175 171 160 144 126
233 241 259 264 234 230 264 276 211 223 221 210 197 188 190 192 197 197 199 199 195 194 199 207 202 206 210 212 193 204 200 195 194 198 201 196 200 197 199 195 200 198 201 201 209 215 221 227 246
243 235 250 258 240 223 196 268 221 236 210 188 184 190 197 198 201 197 198 201 204 199 202 206 203 204 207 202 199 200 202 200 199 203 203 207 207 211 212 213 216 216 218 219 225 235 244 253 262
248 289 290 258 205 225 203 286 228 232 198 186 187 195 199 203 202 207 203 206 208 205 202 206 207 205 204 198 201 217 217 206 210 208 209 213 216 219 221 224 226 229 232 235 238 245 252 258 264
187 172 240 258 181 201 145 256 245 217 190 185 190 197 204 208 211 208 209 211 213 213 207 203 209 211 208 207 202 212 221 215 220 217 215 218 222 223 227 232 235 238 242 245 248 254 259 264 268
236 192 209 280 221 144 169 246 244 224 192 193 196 201 209 212 212 213 210 214 216 217 214 208 210 213 215 215 212 213 225 226 224 223 220 220 225 228 232 237 240 243 246 250 255 258 263 267 272
192 203 236 215 224 169 189 241 274 179 191 201 206 205 207 213 218 213 210 215 219 219 218 214 210 212 215 218 217 216 223 230 229 226 225 222 226 230 235 239 243 248 250 253 258 263 266 270 274
196 195 216 231 239 154 212 224 240 230 218 226 217 211 207 213 224 217 211 216 220 220 216 214 211 208 211 214 215 219 224 227 228 231 229 226 228 233 236 243 247 251 254 259 260 263 266 271 276
249 243 254 311 235 146 252 247 243 226 223 222 222 213 211 213 214 211 210 214 219 219 219 217 214 214 214 217 221 224 228 232 235 236 236 234 232 235 239 245 251 255 256 258 261 264 268 271 275
223 229 220 242 203 328 62 282 247 242 234 229 227 223 212 212 210 206 209 215 217 219 219 219 216 216 218 218 220 224 225 230 230 230 234 237 239 239 244 248 252 255 257 260 263 265 268 272 273
224 175 193 169 151 225 167 272 274 246 237 207 215 220 218 213 214 212 211 213 218 222 222 224 220 218 220 219 221 224 229 231 234 237 242 241 244 248 251 252 253 257 260 260 263 265 268 270 272
229 174 184 171 189 62 238 356 267 263 259 224 210 212 214 212 214 212 213 220 224 221 222 224 223 222 222 222 225 228 231 236 241 241 240 242 245 248 252 255 257 259 262 267 267 266 269 272 272
173 106 80 91 119 260 201 171 252 219 231 251 197 212 216 216 215 216 221 220 219 222 224 224 226 225 225 226 228 230 233 236 237 238 242 245 248 250 254 257 260 262 265 269 272 273 272 274 274
159 139 65 30 247 230 162 203 245 248 243 215 161 155 165 175 179 205 215 214 217 219 222 225 228 230 229 229 232 233 234 237 242 243 247 249 252 255 261 263 264 267 270 271 272 272 273 274 276
194 171 161 179 207 195 161 228 244 233 190 171 160 162 177 198 204 196 199 215 219 221 224 226 229 231 232 233 236 237 238 240 243 245 248 251 255 260 261 263 265 269 270 270 271 272 274 275 275
191 200 179 102 9 99 215 281 294 183 206 185 171 175 189 200 212 215 212 200 208 217 222 228 231 234 237 239 241 242 243 244 245 247 250 254 256 259 262 264 266 268 270 272 272 273 276 277 278
202 170 213 358 146 209 259 249 237 225 229 203 182 164 164 184 197 209 212 210 205 209 216 221 230 237 240 241 242 244 247 249 250 250 251 255 258 261 263 266 268 269 271 273 273 275 277 277 279
148 189 204 171 168 184 170 249 211 229 196 181 181 170 163 168 176 184 191 198 203 210 215 217 221 227 232 237 241 243 243 245 248 252 254 256 259 262 266 269 270 270 272 274 275 277 279 279 280
149 225 201 197 225 244 167 253 316 245 162 149 159 159 157 160 158 155 156 163 174 186 199 209 218 223 226 231 234 236 238 241 246 250 252 253 257 260 263 266 269 272 274 276 277 279 281 282 282
Wind_Speed_850mb
17 23 19 13 6 7 8 14 5 7 7 14 21 16 22 15 7 7 45 30 35 36 41 39 29 33 40 25 15 8 27 35 36 33 31 34 31 34 33 33 35 35 36 36 37 37 38 41 39
17 18 8 5 6 3 11 13 4 6 19 34 32 25 13 6 10 32 35 42 31 42 46 39 33 42 34 22 13 12 23 34 34 33 33 35 31 34 32 33 34 35 35 36 36 37 37 37 41
19 11 6 5 7 10 9 7 10 16 25 17 15 20 10 8 22 51 44 45 37 45 47 39 34 44 32 24 17 10 16 35 35 33 32 33 32 32 32 33 34 34 35 35 35 35 34 35 36
11 1 10 2 15 14 14 8 14 6 14 15 33 16 15 8 38 31 48 43 45 48 46 39 45 37 31 21 13 10 13 31 34 32 33 31 33 31 32 33 33 34 34 34 34 34 34 37 36
6 5 3 5 15 12 3 30 17 8 11 16 14 13 15 21 19 36 49 49 47 48 48 42 42 36 28 23 15 10 11 35 34 33 33 31 32 31 32 32 32 33 33 34 34 35 36 37 38
7 1 0 7 16 11 8 15 16 19 20 20 17 20 13 21 25 46 46 49 43 46 52 47 42 36 31 26 18 12 15 34 35 32 32 30 31 31 31 30 30 31 31 33 33 33 34 34 32
8 6 7 8 12 17 9 11 8 16 21 14 24 10 20 38 31 52 46 49 42 38 53 53 43 35 29 24 18 14 29 34 33 35 33 30 31 30 28 28 28 29 29 29 29 30 31 31 29
6 8 6 9 13 17 6 10 12 25 6 23 19 16 16 51 50 53 46 44 37 33 53 58 46 39 32 27 18 16 13 34 34 34 31 29 30 29 27 26 25 25 26 25 26 26 26 27 26
11 3 6 14 12 10 16 8 4 10 31 12 11 15 12 54 56 57 55 54 42 40 51 59 56 44 37 30 24 19 17 23 32 33 32 29 27 26 25 24 23 23 22 22 21 21 20 21 22
11 8 16 7 14 9 11 14 21 11 24 9 12 14 25 53 62 67 65 63 59 51 49 60 60 55 42 36 31 26 24 24 25 34 34 29 27 24 24 22 21 20 19 18 17 15 14 15 16
15 13 9 16 32 16 6 33 22 19 6 24 37 43 50 56 62 64 62 61 58 58 51 54 64 60 50 42 40 34 30 28 31 36 33 28 26 24 24 22 19 18 15 15 13 12 10 10 10
8 30 34 32 31 5 4 9 11 21 9 19 39 47 55 60 64 63 61 61 57 60 55 51 60 64 60 45 43 38 37 33 36 38 32 28 27 26 24 22 20 17 15 13 11 9 7 5 4
13 17 38 44 16 11 13 20 13 22 23 12 40 54 55 57 59 55 54 52 52 59 61 53 52 64 64 51 47 40 39 34 39 39 34 31 30 28 26 23 22 20 18 15 12 10 8 6 5
13 41 43 44 20 11 8 11 8 23 31 26 48 55 54 54 57 55 56 57 56 55 62 57 53 54 54 55 52 47 39 34 37 40 37 34 34 31 27 24 22 22 20 19 17 15 14 13 13
38 8 11 17 18 8 14 12 17 31 43 44 47 49 51 52 54 58 58 62 56 55 54 61 55 51 53 57 56 48 42 36 36 38 40 39 37 33 29 28 26 26 25 24 22 21 21 21 20
11 4 5 10 18 10 20 18 15 34 53 53 50 49 49 51 53 54 58 61 57 55 57 58 61 56 54 56 59 57 50 39 35 39 41 41 39 36 33 32 30 30 29 28 27 27 27 27 27
5 6 13 11 16 11 13 12 13 39 60 53 52 52 53 49 50 52 60 64 63 58 57 58 60 61 56 55 54 57 54 47 40 41 43 41 41 40 37 35 34 33 32 32 32 32 32 33 33
9 10 10 13 14 16 13 16 13 22 47 51 52 55 57 55 58 55 63 64 64 58 57 56 58 56 57 56 55 56 57 54 49 45 43 43 43 42 41 39 38 37 37 36 36 36 36 37 37
10 11 23 10 7 13 18 13 22 33 31 36 46 61 66 61 52 53 61 66 65 62 59 60 61 61 62 63 65 66 64 57 52 49 46 45 44 44 43 42 42 41 39 37 37 39 40 39 38
22 13 12 4 4 9 7 20 21 15 27 56 61 56 72 65 57 60 62 70 70 67 62 60 60 62 63 61 62 63 57 53 47 48 50 46 44 44 43 43 43 43 41 40 40 41 41 41 39
30 28 8 8 5 5 3 13 14 17 44 54 66 67 67 75 69 65 67 74 72 75 67 61 60 61 63 59 58 61 59 56 56 56 52 47 46 45 43 42 44 44 44 42 41 42 43 42 40
32 15 12 11 8 8 11 11 11 14 26 21 56 69 69 69 76 67 69 75 77 73 65 64 59 61 62 61 64 63 62 58 54 48 43 43 46 42 42 43 43 45 44 44 42 43 44 45 45
15 16 15 9 6 2 5 1 14 11 15 21 35 65 75 69 78 79 74 66 66 70 72 66 62 60 61 64 64 62 60 56 51 44 44 43 41 41 41 43 43 44 45 43 44 45 46 47 47
11 11 5 4 5 9 14 13 10 11 15 9 13 55 65 72 61 81 73 68 67 67 70 70 68 66 65 64 64 62 57 56 55 50 47 44 40 40 42 43 42 43 44 45 44 45 48 48 50
11 17 2 2 4 15 4 9 25 14 12 11 15 33 34 35 36 55 80 80 75 69 66 68 71 71 67 67 65 63 59 58 57 51 49 45 41 39 36 39 40 40 40 43 46 48 49 51 53
17 23 10 15 10 9 4 13 11 16 14 17 20 26 25 26 29 36 37 64 72 67 62 63 68 71 70 68 67 64 59 61 59 54 52 49 46 40 37 39 41 42 42 44 47 51 52 51 54
13 19 12 9 6 7 9 10 14 9 10 12 21 24 23 25 30 36 42 43 57 65 61 57 59 63 63 64 64 63 59 61 60 57 56 52 49 45 44 44 45 45 46 47 49 54 55 54 55
16 17 15 3 9 7 8 7 11 11 15 8 11 23 25 22 24 27 33 40 51 54 55 55 53 53 55 58 58 58 56 55 56 57 59 56 52 50 50 50 49 49 49 50 53 57 57 57 59
4 16 11 9 9 11 5 10 11 12 21 22 17 29 30 25 22 22 26 31 37 46 52 53 54 53 53 54 53 53 52 52 51 52 51 51 51 51 51 51 51 51 51 52 55 58 59 61 62
4 10 38 12 19 4 6 10 6 14 18 27 28 34 29 25 24 23 23 24 27 31 37 43 44 44 42 42 41 40 39 42 44 43 42 44 46 46 48 49 52 53 53 53 56 59 60 62 63
Wind_Direction_850mb
274 293 316 338 24 52 261 255 211 160 69 96 75 75 111 68 50 144 138 172 173 165 170 169 158 145 155 153 128 105 111 112 111 113 110 106 104 104 96 95 94 91 87 86 84 83 86 87 80
306 322 309 298 115 333 283 261 325 184 133 113 90 113 50 84 117 138 143 166 173 163 161 159 148 154 155 165 167 121 112 116 114 116 111 107 108 104 100 100 96 92 89 88 88 87 90 91 90
314 327 295 157 173 208 245 355 143 118 133 128 111 89 84 107 137 149 155 172 172 161 161 159 162 157 162 169 160 124 116 122 129 122 124 112 111 109 106 102 100 96 93 91 91 90 90 91 92
328 230 254 146 258 258 261 114 134 99 81 85 119 72 88 156 150 162 170 162 166 161 162 157 160 170 171 183 157 158 132 137 128 126 125 120 116 112 112 107 103 99 95 91 88 88 90 92 96
318 254 263 255 252 259 257 161 157 126 135 122 107 142 109 149 182 165 166 159 172 169 167 156 163 165 175 184 192 176 161 139 136 130 127 128 123 120 114 110 105 100 95 91 87 84 86 92 105
301 267 290 242 266 278 220 157 162 136 146 137 102 114 143 179 180 167 160 162 177 174 173 161 162 170 181 189 207 194 186 147 136 135 133 129 129 123 118 114 107 102 97 93 90 87 86 89 99
184 92 228 277 283 302 230 166 176 155 139 149 152 97 148 177 178 160 167 168 181 180 179 170 176 179 183 188 196 184 159 156 152 145 145 139 133 127 122 117 113 109 104 99 96 93 90 87 84
243 122 270 262 279 268 224 162 231 144 126 145 151 168 179 184 170 166 166 165 182 180 181 175 178 181 184 187 196 183 182 161 158 158 152 141 138 134 129 125 121 116 110 106 99 94 92 90 88
244 66 222 242 246 282 152 160 131 150 143 143 154 167 209 176 169 169 168 173 182 176 181 184 183 183 185 184 196 197 181 184 169 158 150 147 147 140 138 132 129 125 121 114 106 99 92 90 86
169 170 226 221 300 178 286 227 165 150 135 113 144 158 163 172 173 176 180 182 183 188 191 194 194 197 190 193 201 208 200 190 173 164 161 162 155 150 148 143 144 140 136 129 121 112 104 93 85
192 215 253 278 308 347 44 239 187 144 216 193 181 169 170 177 182 188 189 192 190 190 197 199 200 203 203 194 198 207 206 192 183 175 177 175 167 164 165 164 162 159 158 151 146 138 125 105 91
243 234 243 266 263 264 255 182 191 190 196 217 223 201 179 186 190 194 194 193 191 191 199 203 203 206 209 197 197 210 210 191 187 189 190 185 190 184 183 183 182 178 183 178 175 171 160 144 126
233 241 259 264 234 230 264 276 211 223 221 210 197 188 190 192 197 197 199 199 195 194 199 207 202 206 210 212 193 204 200 195 194 198 201 196 200 197 199 195 200 198 201 201 209 215 221 227 246
243 235 250 258 240 223 196 268 221 236 210 188 184 190 197 198 201 197 198 201 204 199 202 206 203 204 207 202 199 200 202 200 199 203 203 207 207 211 212 213 216 216 218 219 225 235 244 253 262
248 289 290 258 205 225 203 286 228 232 198 186 187 195 199 203 202 207 203 206 208 205 202 206 207 205 204 198 201 217 217 206 210 208 209 213 216 219 221 224 226 229 232 235 238 245 252 258 264
187 172 240 258 181 201 145 256 245 217 190 185 190 197 204 208 211 208 209 211 213 213 207 203 209 211 208 207 202 212 221 215 220 217 215 218 222 223 227 232 235 238 242 245 248 254 259 264 268
236 192 209 280 221 144 169 246 244 224 192 193 196 201 209 212 212 213 210 214 216 217 214 208 210 213 215 215 212 213 225 226 224 223 220 220 225 228 232 237 240 243 246 250 255 258 263 267 272
192 203 236 215 224 169 189 241 274 179 191 201 206 205 207 213 218 213 210 215 219 219 218 214 210 212 215 218 217 216 223 230 229 226 225 222 226 230 235 239 243 248 250 253 258 263 266 270 274
196 195 216 231 239 154 212 224 240 230 218 226 217 211 207 213 224 217 211 216 220 220 216 214 211 208 211 214 215 219 224 227 228 231 229 226 228 233 236 243 247 251 254 259 260 263 266 271 276
249 243 254 311 235 146 252 247 243 226 223 222 222 213 211 213 214 211 210 214 219 219 219 217 214 214 214 217 221 224 228 232 235 236 236 234 232 235 239 245 251 255 256 258 261 264 268 271 275
223 229 220 242 203 328 62 282 247 242 234 229 227 223 212 212 210 206 209 215 217 219 219 219 216 216 218 218 220 224 225 230 230 230 234 237 239 239 244 248 252 255 257 260 263 265 268 272 273
224 175 193 169 151 225 167 272 274 246 237 207 215 220 218 213 214 212 211 213 218 222 222 224 220 218 220 219 221 224 229 231 234 237 242 241 244 248 251 252 253 257 260 260 263 265 268 270 272
229 174 184 171 189 62 238 356 267 263 259 224 210 212 214 212 214 212 213 220 224 221 222 224 223 222 222 222 225 228 231 236 241 241 240 242 245 248 252 255 257 259 262 267 267 266 269 272 272
173 106 80 91 119 260 201 171 252 219 231 251 197 212 216 216 215 216 221 220 219 222 224 224 226 225 225 226 228 230 233 236 237 238 242 245 248 250 254 257 260 262 265 269 272 273 272 274 274
159 139 65 30 247 230 162 203 245 248 243 215 161 155 165 175 179 205 215 214 217 219 222 225 228 230 229 229 232 233 234 237 242 243 247 249 252 255 261 263 264 267 270 271 272 272 273 274 276
194 171 161 179 207 195 161 228 244 233 190 171 160 162 177 198 204 196 199 215 219 221 224 226 229 231 232 233 236 237 238 240 243 245 248 251 255 260 261 263 265 269 270 270 271 272 274 275 275
191 200 179 102 9 99 215 281 294 183 206 185 171 175 189 200 212 215 212 200 208 217 222 228 231 234 237 239 241 242 243 244 245 247 250 254 256 259 262 264 266 268 270 272 272 273 276 277 278
202 170 213 358 146 209 259 249 237 225 229 203 182 164 164 184 197 209 212 210 205 209 216 221 230 237 240 241 242 244 247 249 250 250 251 255 258 261 263 266 268 269 271 273 273 275 277 277 279
148 189 204 171 168 184 170 249 211 229 196 181 181 170 163 168 176 184 191 198 203 210 215 217 221 227 232 237 241 243 243 245 248 252 254 256 259 262 266 269 270 270 272 274 275 277 279 279 280
149 225 201 197 225 244 167 253 316 245 162 149 159 159 157 160 158 155 156 163 174 186 199 209 218 223 226 231 234 236 238 241 246 250 252 253 257 260 263 266 269 272 274 276 277 279 281 282 282